Weather History for Piney Island, NC

Change the Weather History Date:

Monday, June 17, 2013

  Actual Average (KMRH) Record (KMRH)
Temperature  
Mean Temperature 78 °F -  
Max Temperature 86 °F 83 °F 94 °F (1981)
Min Temperature 72 °F 69 °F 59 °F (1959)
Cooling Degree Days 13    
Growing Degree Days 28 (Base 50)    
Moisture  
Dew Point 69 °F    
Average Humidity 73    
Maximum Humidity 84    
Minimum Humidity 63    
Precipitation  
Precipitation 0.00 in - - ()
Sea Level Pressure  
Sea Level Pressure 30.06 in    
Wind  
Wind Speed 10 mph (SSW)    
Max Wind Speed 18 mph    
Max Gust Speed 25 mph    
Visibility 10 miles    
Events      
Averages and records for this station are not official NWS values.
T = Trace of Precipitation, MM = Missing Value Source: NWS Daily Summary

Daily Weather History Graph

Daily Weather History Graph

Search for Another Location

Airport:

Trip Planner

Search our weather history database for the weather conditions in past years. The results will help you decide how hot, cold, wet, or windy it might be!

Date:

Astronomy

Jun. 17, 2013 Rise Set
Actual Time 5:51 AM EDT 8:22 PM EDT
Civil Twilight 5:21 AM EDT 8:51 PM EDT
Nautical Twilight 4:45 AM EDT 9:28 PM EDT
Astronomical Twilight 4:04 AM EDT 10:09 PM EDT
Moon 2:09 PM EDT 1:13 AM EDT
Length of Visible Light 15h 30m
Length of Day
14h 30m
First Quarter, 60% of the Moon is Illuminated
Jun 17
First Quarter
Jun 23
Full
Jun 30
Last Quarter
Jul 8
New
Jul 15
First Quarter

Hourly Weather History & Observations

Time (EDT) Temp. Heat Index Dew Point Humidity Pressure Visibility Wind Dir Wind Speed Gust Speed Precip Events Conditions
12:56 AM 73.9 °F - 66.9 °F 79% 30.09 in 10.0 mi SSW 10.4 mph - N/A   Clear
1:56 AM 73.9 °F - 66.9 °F 79% 30.09 in 10.0 mi SW 6.9 mph - N/A   Clear
2:56 AM 73.9 °F - 66.9 °F 79% 30.08 in 10.0 mi SW 6.9 mph - N/A   Clear
3:56 AM 73.9 °F - 66.9 °F 79% 30.08 in 10.0 mi SW 6.9 mph - N/A   Clear
4:56 AM 72.0 °F - 66.9 °F 84% 30.08 in 10.0 mi SSW 5.8 mph - 0.00 in   Clear
5:56 AM 72.0 °F - 66.9 °F 84% 30.09 in 9.0 mi SW 3.5 mph - N/A   Clear
6:56 AM 73.0 °F - 68.0 °F 84% 30.09 in 9.0 mi SSW 4.6 mph - N/A   Clear
7:56 AM 78.1 °F - 69.1 °F 74% 30.09 in 10.0 mi SW 6.9 mph - N/A   Partly Cloudy
8:56 AM 80.1 °F 82.9 °F 69.1 °F 69% 30.09 in 10.0 mi SW 12.7 mph - N/A   Mostly Cloudy
9:29 AM 80.6 °F 83.9 °F 69.8 °F 70% 30.07 in 10.0 mi SW 10.4 mph - N/A   Mostly Cloudy
9:56 AM 81.0 °F 84.1 °F 69.1 °F 67% 30.08 in 10.0 mi WSW 12.7 mph - N/A   Mostly Cloudy
10:38 AM 80.6 °F 83.9 °F 69.8 °F 70% 30.06 in 10.0 mi WSW 10.4 mph - N/A   Scattered Clouds
10:56 AM 81.0 °F 84.1 °F 69.1 °F 67% 30.07 in 10.0 mi SW 10.4 mph - N/A   Mostly Cloudy
11:56 AM 81.0 °F 84.9 °F 71.1 °F 72% 30.06 in 10.0 mi SW 5.8 mph - N/A   Mostly Cloudy
12:56 PM 84.9 °F 90.1 °F 71.1 °F 63% 30.06 in 10.0 mi SSW 15.0 mph - N/A   Mostly Cloudy
1:56 PM 84.0 °F 88.4 °F 70.0 °F 63% 30.06 in 10.0 mi South 12.7 mph - N/A   Mostly Cloudy
2:56 PM 84.0 °F 89.0 °F 71.1 °F 65% 30.04 in 10.0 mi South 15.0 mph 21.9 mph N/A   Scattered Clouds
3:56 PM 84.9 °F 90.1 °F 71.1 °F 63% 30.03 in 10.0 mi SSW 15.0 mph 20.7 mph N/A   Scattered Clouds
4:56 PM 84.0 °F 88.4 °F 70.0 °F 63% 30.01 in 10.0 mi South 18.4 mph 24.2 mph N/A   Clear
5:56 PM 82.0 °F 85.9 °F 70.0 °F 67% 30.01 in 10.0 mi SSW 18.4 mph 25.3 mph N/A   Clear
6:56 PM 81.0 °F 84.1 °F 69.1 °F 67% 30.01 in 10.0 mi SSW 15.0 mph 24.2 mph N/A   Clear
7:56 PM 79.0 °F - 70.0 °F 74% 30.02 in 10.0 mi SSW 11.5 mph - N/A   Clear
8:56 PM 78.1 °F - 71.1 °F 79% 30.03 in 10.0 mi South 6.9 mph - N/A   Clear
9:56 PM 78.1 °F - 72.0 °F 81% 30.04 in 10.0 mi South 5.8 mph - N/A   Scattered Clouds
10:56 PM 78.1 °F - 71.1 °F 79% 30.04 in 10.0 mi SSW 12.7 mph - N/A   Overcast
11:56 PM 77.0 °F - 71.1 °F 82% 30.03 in 10.0 mi SSW 8.1 mph - N/A   Clear